Location: Ar Ranvel
(48.3000°N, 4.8833°W)
Time: 15:16:58
(UTC+00:00)

Spot 4 - Pass Details

Date: 16 June 2021
Orbit: 705 x 722 km, 98.3° (Epoch: 04 August)

Event Time Altitude Azimuth Distance (km) Brightness Sun altitude
Exits shadow 23:31:32 32° 183° (S) 1,222 4.5 -17.5°
Maximum altitude 23:33:45 68° 258° (WSW) 767 3.9 -17.6°
Drops below altitude 10° 23:38:32 10° 341° (NNW) 2,190 7.6 -17.7°
Sets 23:40:49 0° 344° (NNW) 3,112 8.9 -17.8°
